Regional Weather Roundup
Issued by NWS Kansas City/Pleasant Hill, MO

Home | Current Version | Previous Version | Graphics & Text | Print | Product List | Glossary Off
Versions: 1 2 3 4 5 6 7 8 9 10 11 12 13 14 15 16 17 18 19 20 21 22 23 24 25 26 27 28 29 30 31 32 33 34 35 36 37 38 39 40 41 42 43 44 45 46 47 48 49 50

000
ASUS43 KEAX 272310
RWREAX

WEATHER ROUNDUP FOR EASTERN KANSAS AND NORTHWEST MISSOURI
NATIONAL WEATHER SERVICE KANSAS CITY/PLEASANT HILL MO
600 PM CDT THU APR 27 2017

KSZ040-057-103>105-MOZ028-029-037-043-280000-
...KANSAS CITY METROPOLITAN AREA...

CITY           SKY/WX    TMP DP  RH WIND       PRES   REMARKS
K.C. INTL      CLOUDY    58  39  49 SW9       29.73R
K.C. DOWNTOWN  CLOUDY    61  38  42 W7        29.72S
LEES SUMMIT    CLOUDY    60  41  49 SW5       29.73S
OLATHE - IXD   CLOUDY    59  41  51 SW5       29.73S
OLATHE - OJC   CLOUDY    58  41  53 S3        29.73S
LAWRENCE       MOSUNNY   60  39  45 CALM      29.73S

$$

MOZ001>008-011>017-020>025-030>033-038>040-044>046-053-054-280000-
...NORTHERN AND CENTRAL MISSOURI...

CITY           SKY/WX    TMP DP  RH WIND       PRES   REMARKS
ST. JOSEPH     MOSUNNY   62  39  42 W8G20     29.71R
MOSBY          PTCLDY    61  34  36 S7        29.73R
WHITEMAN AFB   PTSUNNY   60  44  57 W5        29.72S
CLINTON        MOSUNNY   59  45  58 CALM      29.74S
SEDALIA        MOSUNNY   60  46  59 SW7       29.75S
WARSAW         NOT AVBL
CHILLICOTHE      N/A     62  40  44 SW6       29.73R
KIRKSVILLE     MOSUNNY   58  41  53 SW8       29.73R

$$

MOZ041-047>049-056>058-063>065-088>090-097-280000-
...EASTERN AND SOUTHERN MISSOURI...

CITY           SKY/WX    TMP DP  RH WIND       PRES   REMARKS
ST. LOUIS INTL MOSUNNY   62  42  47 SW3       29.76S
SPIRIT OF STL  MOSUNNY   61  44  53 S3        29.75R
COLUMBIA       PTSUNNY   59  44  57 SW10      29.76R
JEFFERSON CITY MOSUNNY   63  41  44 S6        29.75R
ROLLA          CLOUDY    62  44  51 S5        29.74R
OSAGE BEACH    MOSUNNY   64  43  46 S5        29.74S
SPRINGFIELD    MOSUNNY   64  41  42 S7        29.72R
BRANSON        PTSUNNY   64  45  48 SE10      29.73S
JOPLIN         CLOUDY    64  45  49 E7        29.71S
WEST PLAINS    SUNNY     65  42  43 S8        29.76S

$$

IAZ060-094-KSZ022-034>040-054-083-096-NEZ052-066-093-280000-
...KANSAS...SOUTHEAST NEBRASKA AND IOWA...

CITY           SKY/WX    TMP DP  RH WIND       PRES   REMARKS
TOPEKA         CLOUDY    59  39  47 CALM      29.72S
MANHATTAN      CLOUDY    59  38  45 SE7       29.70S
EMPORIA        LGT RAIN  54  49  83 E7        29.70F
CHANUTE        CLOUDY    60  46  59 MISG      29.74R
WICHITA        CLOUDY    57  48  72 E18       29.63F
OMAHA          PTSUNNY   58  32  37 W6        29.70R
LINCOLN        CLOUDY    57  33  40 S8        29.71R
FALLS CITY     MOSUNNY   59  39  47 W5        29.70S
LAMONI         MOSUNNY   58  39  49 W8        29.70R
DES MOINES     PTSUNNY   57  35  43 NW9       29.70R

$$




USA.gov is the U.S. government's official web portal to all federal, state and local government web resources and services.